Syracuse, NY

7:58 PM EDT on April 19, 2018 (GMT -0400)
Syracuse Hancock International

Weather History for KSYR - May, 2014

Change the Weather History Date:

Friday, May 2, 2014

  Actual Average Record
Temperature  
Mean Temperature 54 °F 53 °F  
Max Temperature 59 °F 64 °F 86 °F (2001)
Min Temperature 49 °F 42 °F 26 °F (1903)
Degree Days  
Heating Degree Days 11 12  
Month to date heating degree days 22 24  
Since 1 July heating degree days 6887 6359  
Cooling Degree Days 0 0  
Month to date cooling degree days 0 0  
Year to date cooling degree days 1 4  
Growing Degree Days 4 (Base 50)    
Moisture  
Dew Point 40 °F    
Average Humidity 59    
Maximum Humidity 71    
Minimum Humidity 47    
Precipitation  
Precipitation T in 0.09 in 1.30 in (1992)
Month to date precipitation 0.09 0.19  
Year to date precipitation 13.76 10.90  
Snow  
Snow 0.00 in 0.00 in T in (1986)
Month to date snowfall 0.0 0.0  
Since 1 July snowfall 132.0 123.7  
Snow Depth 0.00 in    
Sea Level Pressure  
Sea Level Pressure 29.75 in    
Wind  
Wind Speed 10 mph (WSW)    
Max Wind Speed 24 mph    
Max Gust Speed 31 mph    
Visibility 10 miles    
Events Rain    
T = Trace of Precipitation, MM = Missing Value Source: NWS Daily Summary

Daily Weather History Graph

Daily Weather History Graph

Search for Another Location

Airport or City:

Astronomy

May. 02, 2014 Rise Set
Actual Time 5:56 AM EDT 8:06 PM EDT
Civil Twilight 5:25 AM EDT 8:38 PM EDT
Nautical Twilight 4:47 AM EDT 9:16 PM EDT
Astronomical Twilight 4:04 AM EDT 9:59 PM EDT
Moon 8:30 AM EDT (5/2) 11:28 PM EDT (5/2)
Length of Visible Light 15h 12m
Length of Day
14h 10m
Waxing Crescent, 12% of the Moon is Illuminated
May 2
Waxing Crescent
May 6
First Quarter
May 14
Full
May 21
Last Quarter
May 28
New

Hourly Weather History & Observations

Time (EDT) Temp. Dew Point Humidity Pressure Visibility Wind Dir Wind Speed Gust Speed Precip Events Conditions
12:54 AM 50.0 °F 37.9 °F 63% 29.75 in 10.0 mi SSW 6.9 mph - N/A   Overcast
1:54 AM 50.0 °F 37.9 °F 63% 29.74 in 10.0 mi SSW 5.8 mph - N/A   Overcast
2:54 AM 48.9 °F 39.0 °F 69% 29.73 in 10.0 mi SSW 4.6 mph - N/A   Overcast
3:54 AM 50.0 °F 39.0 °F 66% 29.72 in 10.0 mi West 8.1 mph - N/A   Overcast
4:54 AM 51.1 °F 37.9 °F 61% 29.72 in 10.0 mi West 12.7 mph 19.6 mph N/A   Overcast
5:54 AM 50.0 °F 39.0 °F 66% 29.71 in 10.0 mi WSW 9.2 mph - N/A   Overcast
6:54 AM 50.0 °F 39.0 °F 66% 29.70 in 10.0 mi WSW 11.5 mph - N/A   Overcast
7:54 AM 52.0 °F 39.9 °F 63% 29.71 in 10.0 mi South 4.6 mph - N/A   Overcast
8:54 AM 52.0 °F 39.9 °F 63% 29.72 in 10.0 mi WSW 11.5 mph - 0.00 in   Overcast
9:54 AM 54.0 °F 41.0 °F 62% 29.72 in 10.0 mi WSW 20.7 mph 28.8 mph N/A   Mostly Cloudy
10:54 AM 53.1 °F 41.0 °F 64% 29.73 in 10.0 mi WSW 13.8 mph 25.3 mph N/A   Overcast
11:54 AM 54.0 °F 41.0 °F 62% 29.74 in 10.0 mi WSW 17.3 mph 24.2 mph N/A   Mostly Cloudy
12:54 PM 57.9 °F 39.9 °F 51% 29.73 in 10.0 mi SW 21.9 mph 29.9 mph N/A   Mostly Cloudy
1:40 PM 53.6 °F 41.0 °F 62% 29.74 in 10.0 mi NW 12.7 mph - N/A   Mostly Cloudy
1:54 PM 54.0 °F 39.9 °F 59% 29.73 in 10.0 mi WNW 9.2 mph - N/A   Mostly Cloudy
2:54 PM 55.9 °F 37.0 °F 49% 29.74 in 10.0 mi West 16.1 mph 25.3 mph N/A   Mostly Cloudy
3:54 PM 55.0 °F 37.0 °F 51% 29.75 in 10.0 mi West 10.4 mph - N/A   Overcast
4:54 PM 57.0 °F 37.9 °F 49% 29.75 in 10.0 mi West 11.5 mph - N/A   Overcast
5:54 PM 55.9 °F 37.9 °F 51% 29.76 in 10.0 mi West 8.1 mph - N/A   Mostly Cloudy
6:54 PM 55.0 °F 39.9 °F 57% 29.77 in 10.0 mi West 10.4 mph - N/A   Overcast
7:54 PM 54.0 °F 42.1 °F 64% 29.79 in 10.0 mi West 11.5 mph - 0.00 in Rain Light Rain
8:54 PM 52.0 °F 42.1 °F 69% 29.81 in 10.0 mi WSW 10.4 mph - 0.00 in Rain Light Rain
9:54 PM 52.0 °F 43.0 °F 71% 29.82 in 10.0 mi SW 5.8 mph - 0.00 in   Overcast
10:54 PM 52.0 °F 42.1 °F 69% 29.82 in 10.0 mi SW 4.6 mph - N/A   Overcast
11:54 PM 52.0 °F 43.0 °F 71% 29.82 in 10.0 mi South 4.6 mph - N/A   Overcast